Flag for U.S.A. Weather past 2 weeks in Leawood, Kansas, U.S.A.

Now
53 °F

Clear.


Feels Like: 51 °F
Forecast: 54 / 76 °F
Wind: 6 mph from South

Location: Johnson County Executive Airport


UV Index: 0 (Low)

Visibility: 10 mi


Pressure: 30.07 "Hg

Humidity: 74%

Dew point: 45 °F

Location of LeawoodLocation

Historic Weather in Leawood

°F

Leawood temperature yesterday

Maximum temperature yesterday: 74 °F (at 3:53 PM)
Minimum temperature yesterday: 49 °F (at 6:53 AM)
Average temperature yesterday: 62 °F

Past Weeks' High & Low Weather Summary

 TemperatureHumidityPressure
High79 °F (Apr 12, 3:53 PM)97% (Apr 13, 5:53 PM)30.32 "Hg (Apr 13, 5:53 PM)
Low27 °F (Apr 15, 5:53 AM)22% (Apr 9, 1:53 PM)29.40 "Hg (Apr 13, 3:53 PM)
Average53 °F55%29.97 "Hg
* Reported Apr 5 4:53 AM — Apr 20 4:53 AM, Leawood, Weather by CustomWeather, © 2014

Note: Actual official high and low records may vary slightly from our data, if they occured in-between our weather recording intervals... More about our weather records

Advertising

Historic Weather Conditions — Data for Previous 24 hours

 ConditionsComfort  
Time TempWeatherWind HumidityBarometerVisibility
4:53 AM
Apr 20
53 °FClear.6 mph74%30.07 "Hg10 mi
3:53 AM55 °FClear.5 mph69%30.08 "Hg10 mi
2:53 AM57 °FClear.3 mph62%30.08 "Hg10 mi
1:53 AM56 °FClear.3 mph65%30.08 "Hg10 mi
12:53 AM58 °FClear.5 mph60%30.07 "Hg10 mi
11:53 PM
Apr 19
59 °FClear.3 mph58%30.07 "Hg10 mi
10:53 PM61 °FClear.7 mph54%30.07 "Hg10 mi
9:53 PM61 °FClear.6 mph56%30.07 "Hg10 mi
8:53 PM64 °FSunny.7 mph50%30.06 "Hg10 mi
7:53 PM68 °FSunny.8 mph44%30.05 "Hg10 mi
6:53 PM71 °FSunny.12 mph38%30.05 "Hg10 mi
5:53 PM72 °FSunny.16 mph37%30.06 "Hg10 mi
4:53 PM73 °FSunny.14 mph37%30.05 "Hg10 mi
3:53 PM74 °FSunny.20 mph36%30.06 "Hg10 mi
2:53 PM73 °FSunny.16 mph37%30.09 "Hg10 mi
1:53 PM73 °FSunny.20 mph37%30.10 "Hg10 mi
12:53 PM72 °FSunny.22 mph40%30.12 "Hg10 mi
11:53 AM71 °FSunny.16 mph41%30.13 "Hg10 mi
10:53 AM67 °FSunny.14 mph47%30.14 "Hg10 mi
9:53 AM63 °FSunny.13 mph54%30.15 "Hg10 mi
8:53 AM59 °FSunny.12 mph58%30.16 "Hg10 mi
7:53 AM51 °FSunny.7 mph69%30.16 "Hg10 mi
6:53 AM49 °FClear.7 mph69%30.14 "Hg10 mi
Weather by CustomWeather, © 2014

See weather overview